STARLINK-1458, 45675

Orbit data source: Space-Track

STARLINK-1458, 45675 is a payload satellite owned by SpaceX/Seattle (US) in LEO that was launched on Thu, 04 Jun 2020 UTC via an FALCON 9 launch vehicle from the Air Force Eastern Test Range (AFETR). Payload-class satellites include a variety of spacecraft equipped with specific instruments for various scientific and technological missions. These include communications satellites like Starlink; space stations such as the ISS; scientific satellites like the Hubble; Earth observation satellites from companies like Planet Labs, Umbra, and HawkEye 360; GPS; miniature CubeSats for education and research; and military/defense satellites.

Loading next visibility...
Identifier
45675, 2020-035U
Orbit
LEO
Country
Flag of USUS
Related business
Manufacturer
SpaceX/Seattle
Mission
Operational Commercial Communications
Bus & Motor
STARLINK, Unknown motor
Mass
260 kg wet, ~248 kg dry
Launch date (UTC)
2020-06-04 (5 years ago)
Launch vehicle
FALCON 9
Launch site
Air Force Eastern Test Range (AFETR)
Object type
Payload
Rocket body
Debris
Shape & HBR
Box + 1 Pan, 10.1 m
Radar Cross Section
13.562 m², Large (>1 m²)

Expand to show TLE details & history
Last TLE update: 13 hours ago

TLE from 13 hours ago
0 STARLINK-1458
1 45675U 20035U   25304.68602343  .00002232  00000-0  16868-3 0  9994
2 45675  53.0533 285.7367 0001367  92.8403 267.2742 15.06398888299252
Epoch: 2025-10-31T16:27Z
TLE epoch observation values (Epoch: 2025-10-31T16:27:52.424Z)
Latitude
-0.00005°
Longitude
-1.45867°
Altitude
548.139 km
Speed
7.589 km/s
True Right ascension
19h 02m 56s
True Declination
0° 00' 00"
Sunlit
Object was in daylight at epoch
Visualization orbit readout
Latitude
Unknown
Longitude
Unknown
Altitude
Unknown
Speed
Unknown
Apparent Right ascension
Unknown
Apparent Declination
Unknown
Sunlit
N/A
Visualization observer readout
Local Sidereal Time
01:14:23
Azimuth
Unknown
Elevation
Unknown
Doppler factor
Unknown
Orbital elements
Apogee altitude
548.433 km
Perigee altitude
546.539 km
Semi-major axis
6,925.623 km
Eccentricity
0.00014
Inclination
53.0533°
RAAN
285.7367°
Arg. of periapsis
92.8403°
True anomaly
267.25855°
Mean anomaly
267.2742°
Eccentric anomaly
267.26638°
Mean motion
3.76578 °/min
Orbital period
95.6 mins
BSTAR
0.00016868
Loading maneuver chart data...
Computing Atmospheric mass density...
Loading historical data...
Loading historical data...
Loading historical data...
Loading historical data...
Loading historical data...
Loading historical data...
Loading historical data...

Documentation

Showing up to 5 results
|